Regional Weather Roundup
Issued by NWS

Home | Current Version | Previous Version | Text Only | Print | Product List | Glossary Off
Versions: 1 2 3 4 5 6 7 8 9 10 11 12 13 14 15 16 17 18 19 20 21 22 23 24 25 26 27 28 29 30 31 32 33 34 35 36 37 38 39 40 41 42 43 44 45 46 47 48 49 50

000
ASUS43 KIND 300159
RWRIN

WEATHER ROUNDUP FOR INDIANA
NATIONAL WEATHER SERVICE INDIANAPOLIS IN
1000 PM EDT WED JUL 29 2015

NOTE: "FAIR" INDICATES FEW OR NO CLOUDS BELOW 12,000 FEET WITH NO
SIGNIFICANT WEATHER AND/OR OBSTRUCTIONS TO VISIBILITY.

* - STATION DOES NOT REPORT WEATHER SUCH AS PRECIPITATION OR FOG.

+ - STATION NOT QUALITY CONTROLLED BY THE NATIONAL WEATHER SERVICE.
    USE DATA WITH CAUTION...ESPECIALLY DEWPOINT AND RELATIVE
    HUMIDITY OBSERVATIONS.

INZ001>003-010>013-019-020-300300-
NORTHWEST INDIANA

CITY           SKY/WX    TMP DP  RH WIND       PRES   REMARKS
GARY /AIRPORT/ PTCLDY    77  57  50 W14       30.00R
RENSSELAER +   CLEAR     72  59  64 W5        30.02R

$$

LMZ046-743>745-300300-
SOUTHERN LAKE MICHIGAN

STATION/POSITION TIME  TEMP    WIND        PRES    WAVE
                       AIR SEA DIR/SP/G            HT
                 (UTC) (F)     (DEG/KT/KT) (MB)    (FT)
BURNS HARBOR     0100   79     280/ 14/ 16 1015.2R
MICHIGAN CITY    0100   78     250/ 10/ 12   N/A
5NW MICH CITY    0100   78 76  300/  8/ 10   N/A     1

$$

INZ004-005-014>016-021>024-300300-
NORTH CENTRAL INDIANA

CITY           SKY/WX    TMP DP  RH WIND       PRES   REMARKS
GOSHEN         LGT RAIN  69  58  67 CALM      29.98R
SOUTH BEND     CLEAR     70  60  70 W7        29.99R

$$

INZ006>009-017-018-025>027-300300-
NORTHEAST INDIANA

CITY           SKY/WX    TMP DP  RH WIND       PRES   REMARKS
ANGOLA *+      CLEAR     72  64  78 CALM      29.98R
FORT WAYNE     PTCLDY    72  64  76 W3        29.98R

$$

INZ028-029-035-036-043>045-051>053-300300-
WEST CENTRAL INDIANA

CITY           SKY/WX    TMP DP  RH WIND       PRES   REMARKS
CRAWFORDSVL +  MOCLDY    70  62  77 NW6         N/A
GREENCASTLE +  CLOUDY    77  63  61 N6        30.04R
LAFAYETTE      PTCLDY    71  60  68 W3        30.01R
TERRE HAUTE    MOCLDY    77  63  61 N7        30.03R

$$

INZ030>032-037>040-046>048-054>057-064-065-300300-
CENTRAL INDIANA

CITY           SKY/WX    TMP DP  RH WIND       PRES   REMARKS
COLUMBUS       CLEAR     81  73  78 W5        29.99R
GREENWOOD *+   CLOUDY    79  63  57 NW9       30.01
INDIANAPOLIS   MOCLDY    78  65  63 NW13      30.00R
-EAGLE CREEK   MOCLDY    78  66  66 NW14      30.00R
KOKOMO *+      PTCLDY    75  63  64 NW9       30.00R
MT COMFORT *+  CLOUDY    79  66  65 NW6       30.01R
SHELBYVILLE    CLOUDY    82  73  74 NW8       29.98R

$$

INZ033-034-041-042-049-050-058-059-300300-
EAST CENTRAL INDIANA

CITY           SKY/WX    TMP DP  RH WIND       PRES   REMARKS
MUNCIE         MOCLDY    78  75  90 CALM      29.98R

$$

INZ060-061-067>069-081>083-085>088-300300-
SOUTHWEST INDIANA

CITY           SKY/WX    TMP DP  RH WIND       PRES   REMARKS
EVANSVILLE     CLOUDY    82  77  84 N3        30.02R
HUNTINGBURG *+ CLOUDY    81  73  78 NW3       30.02R

$$

INZ062-063-066-070>080-084-089>092-300300-
SOUTH CENTRAL AND SOUTHEAST INDIANA

CITY           SKY/WX    TMP DP  RH WIND       PRES   REMARKS
BLOOMINGTON    MOCLDY    80  67  64 VRB6      30.02R
MADISON *+     CLOUDY    75  73  94 SE3       30.03R
SEYMOUR +      CLOUDY    77  75  94 CALM      30.00R FOG

$$




USA.gov is the U.S. government's official web portal to all federal, state and local government web resources and services.